Time,TemperatureF,DewpointF,PressureIn,WindDirection,WindDirectionDegrees,WindSpeedMPH,WindSpeedGustMPH,Humidity,HourlyPrecipIn,Conditions,Clouds,dailyrainin,SoftwareType,DateUTC
2013-03-09 00:03:00,53.4,45.3,30.12,WNW,293,0.0,0.0,74,0.00,,,0.00,WSDL version 420,2013-03-09 05:03:00,
2013-03-09 00:08:00,53.2,45.2,30.12,WNW,293,0.0,0.0,74,0.00,,,0.00,WSDL version 420,2013-03-09 05:08:00,
2013-03-09 00:13:00,53.2,45.2,30.12,WNW,293,0.0,0.0,74,0.00,,,0.00,WSDL version 420,2013-03-09 05:13:00,
2013-03-09 00:18:00,53.1,45.0,30.12,WNW,293,0.0,0.0,74,0.00,,,0.00,WSDL version 420,2013-03-09 05:18:00,
2013-03-09 00:23:00,53.2,45.1,30.12,WNW,293,0.0,0.0,74,0.00,,,0.00,WSDL version 420,2013-03-09 05:23:00,
2013-03-09 00:28:00,53.2,45.2,30.12,WNW,293,0.0,0.0,74,0.00,,,0.00,WSDL version 420,2013-03-09 05:28:00,
2013-03-09 00:33:00,53.2,45.1,30.12,WNW,293,0.0,0.0,74,0.00,,,0.00,WSDL version 420,2013-03-09 05:33:00,
2013-03-09 00:38:00,53.1,45.0,30.12,WNW,296,0.0,0.0,74,0.00,,,0.00,WSDL version 420,2013-03-09 05:38:00,
2013-03-09 00:43:00,53.1,45.0,30.12,NW,315,0.0,0.0,74,0.00,,,0.00,WSDL version 420,2013-03-09 05:43:00,
2013-03-09 00:48:00,53.1,45.0,30.12,NW,315,0.0,0.0,74,0.00,,,0.00,WSDL version 420,2013-03-09 05:48:00,
2013-03-09 00:53:00,53.1,45.4,30.12,NW,315,0.0,0.0,75,0.00,,,0.00,WSDL version 420,2013-03-09 05:53:00,
2013-03-09 00:58:00,53.1,45.4,30.12,NW,315,0.0,0.0,75,0.00,,,0.00,WSDL version 420,2013-03-09 05:58:00,
2013-03-09 01:03:00,53.1,45.4,30.12,NW,318,0.0,0.0,75,0.00,,,0.00,WSDL version 420,2013-03-09 06:03:00,
2013-03-09 01:08:00,53.1,45.4,30.12,West,270,0.0,0.0,75,0.00,,,0.00,WSDL version 420,2013-03-09 06:08:00,
2013-03-09 01:13:00,53.2,45.5,30.12,West,270,0.0,0.0,75,0.00,,,0.00,WSDL version 420,2013-03-09 06:13:00,
2013-03-09 01:18:00,53.2,45.5,30.12,West,270,0.0,0.0,75,0.00,,,0.00,WSDL version 420,2013-03-09 06:18:00,
2013-03-09 01:23:00,53.2,45.5,30.12,West,270,0.0,0.0,75,0.00,,,0.00,WSDL version 420,2013-03-09 06:23:00,
2013-03-09 01:28:00,53.2,45.5,30.12,West,270,0.0,0.0,75,0.00,,,0.00,WSDL version 420,2013-03-09 06:28:00,
2013-03-09 01:33:00,53.1,45.4,30.12,West,270,0.0,0.0,75,0.00,,,0.00,WSDL version 420,2013-03-09 06:33:00,
2013-03-09 01:38:00,53.2,45.7,30.12,West,270,0.0,0.0,76,0.00,,,0.00,WSDL version 420,2013-03-09 06:38:00,
2013-03-09 01:43:00,53.2,45.8,30.12,West,270,0.0,0.0,76,0.00,,,0.00,WSDL version 420,2013-03-09 06:43:00,
2013-03-09 01:48:00,53.0,45.6,30.12,West,270,0.0,0.0,76,0.00,,,0.00,WSDL version 420,2013-03-09 06:48:00,
2013-03-09 01:53:00,52.9,45.5,30.09,West,270,0.0,0.0,76,0.00,,,0.00,WSDL version 420,2013-03-09 06:53:00,
2013-03-09 01:58:00,52.6,45.3,30.09,West,270,0.0,0.0,76,0.00,,,0.00,WSDL version 420,2013-03-09 06:58:00,
2013-03-09 02:03:00,52.5,45.3,30.09,West,270,0.0,0.0,77,0.00,,,0.00,WSDL version 420,2013-03-09 07:03:00,
2013-03-09 02:08:00,52.4,45.4,30.09,West,270,0.0,0.0,77,0.00,,,0.00,WSDL version 420,2013-03-09 07:08:00,
2013-03-09 02:13:00,52.3,45.3,30.09,West,270,0.0,0.0,77,0.00,,,0.00,WSDL version 420,2013-03-09 07:13:00,
2013-03-09 02:18:00,52.2,45.2,30.09,West,270,0.0,0.0,77,0.00,,,0.00,WSDL version 420,2013-03-09 07:18:00,
2013-03-09 02:23:00,52.2,45.2,30.09,West,270,0.0,0.0,77,0.00,,,0.00,WSDL version 420,2013-03-09 07:23:00,
2013-03-09 02:28:00,52.2,45.4,30.09,West,270,0.0,0.0,77,0.00,,,0.00,WSDL version 420,2013-03-09 07:28:00,
2013-03-09 02:33:00,52.0,45.0,30.09,West,270,0.0,0.0,77,0.00,,,0.00,WSDL version 420,2013-03-09 07:33:00,
2013-03-09 02:38:00,52.0,45.3,30.09,West,270,0.0,0.0,78,0.00,,,0.00,WSDL version 420,2013-03-09 07:38:00,
2013-03-09 02:43:00,52.0,45.3,30.09,West,270,0.0,0.0,78,0.00,,,0.00,WSDL version 420,2013-03-09 07:43:00,
2013-03-09 02:48:00,52.0,45.3,30.09,West,270,0.0,0.0,78,0.00,,,0.00,WSDL version 420,2013-03-09 07:48:00,
2013-03-09 02:53:00,52.1,45.6,30.06,West,270,0.0,0.0,79,0.00,,,0.00,WSDL version 420,2013-03-09 07:53:00,
2013-03-09 02:58:00,52.1,45.8,30.06,West,270,0.0,0.0,79,0.00,,,0.00,WSDL version 420,2013-03-09 07:58:00,
2013-03-09 03:03:00,52.0,45.7,30.06,West,270,0.0,0.0,79,0.00,,,0.00,WSDL version 420,2013-03-09 08:03:00,
2013-03-09 03:08:00,52.0,45.7,30.06,West,270,0.0,0.0,79,0.00,,,0.00,WSDL version 420,2013-03-09 08:08:00,
2013-03-09 03:13:00,52.0,45.7,30.06,West,270,0.0,0.0,79,0.00,,,0.00,WSDL version 420,2013-03-09 08:13:00,
2013-03-09 03:18:00,51.9,45.6,30.06,West,270,0.0,0.0,79,0.00,,,0.00,WSDL version 420,2013-03-09 08:18:00,
2013-03-09 03:23:00,51.8,45.5,30.09,WNW,293,0.0,0.0,79,0.00,,,0.00,WSDL version 420,2013-03-09 08:23:00,
2013-03-09 03:28:00,51.8,45.5,30.09,WNW,293,0.0,0.0,79,0.00,,,0.00,WSDL version 420,2013-03-09 08:28:00,
2013-03-09 03:33:00,51.8,45.5,30.09,WNW,293,0.0,0.0,79,0.00,,,0.00,WSDL version 420,2013-03-09 08:33:00,
2013-03-09 03:38:00,51.9,45.9,30.06,WNW,293,0.0,0.0,80,0.00,,,0.00,WSDL version 420,2013-03-09 08:38:00,
2013-03-09 03:43:00,52.0,46.0,30.06,WNW,293,0.0,0.0,80,0.00,,,0.00,WSDL version 420,2013-03-09 08:43:00,
2013-03-09 03:48:00,52.0,46.0,30.06,WNW,293,0.0,0.0,80,0.00,,,0.00,WSDL version 420,2013-03-09 08:48:00,
2013-03-09 03:53:00,52.0,46.0,30.09,WNW,293,0.0,0.0,80,0.00,,,0.00,WSDL version 420,2013-03-09 08:53:00,
2013-03-09 03:58:00,51.8,45.9,30.09,West,280,0.0,0.0,80,0.00,,,0.00,WSDL version 420,2013-03-09 08:58:00,
2013-03-09 04:03:00,51.8,45.8,30.09,West,270,0.0,0.0,80,0.00,,,0.00,WSDL version 420,2013-03-09 09:03:00,
2013-03-09 04:08:00,51.8,45.8,30.06,West,270,0.0,0.0,80,0.00,,,0.00,WSDL version 420,2013-03-09 09:08:00,
2013-03-09 04:13:00,51.9,46.0,30.06,West,270,0.0,0.0,80,0.00,,,0.00,WSDL version 420,2013-03-09 09:13:00,
2013-03-09 04:18:00,52.0,46.3,30.06,West,270,0.0,0.0,81,0.00,,,0.00,WSDL version 420,2013-03-09 09:18:00,
2013-03-09 04:23:00,52.2,46.6,30.06,West,270,0.0,0.0,81,0.00,,,0.00,WSDL version 420,2013-03-09 09:23:00,
2013-03-09 04:28:00,52.2,46.6,30.06,West,270,0.0,0.0,81,0.00,,,0.00,WSDL version 420,2013-03-09 09:28:00,
2013-03-09 04:33:00,52.0,46.4,30.06,West,270,0.0,0.0,81,0.00,,,0.00,WSDL version 420,2013-03-09 09:33:00,
2013-03-09 04:38:00,51.9,46.3,30.06,West,270,0.0,0.0,81,0.00,,,0.00,WSDL version 420,2013-03-09 09:38:00,
2013-03-09 04:43:00,51.8,46.2,30.06,West,270,0.0,0.0,81,0.00,,,0.00,WSDL version 420,2013-03-09 09:43:00,
2013-03-09 04:48:00,51.7,46.1,30.06,West,270,0.0,0.0,81,0.00,,,0.00,WSDL version 420,2013-03-09 09:48:00,
2013-03-09 04:53:00,51.6,46.0,30.09,West,270,0.0,0.0,81,0.00,,,0.00,WSDL version 420,2013-03-09 09:53:00,
2013-03-09 04:58:00,51.4,45.8,30.09,West,270,0.0,0.0,81,0.00,,,0.00,WSDL version 420,2013-03-09 09:58:00,
2013-03-09 05:03:00,51.4,45.8,30.09,West,270,0.0,0.0,81,0.00,,,0.00,WSDL version 420,2013-03-09 10:03:00,
2013-03-09 05:08:00,51.3,45.7,30.06,West,270,0.0,0.0,81,0.00,,,0.00,WSDL version 420,2013-03-09 10:08:00,
2013-03-09 05:13:00,51.3,45.9,30.06,West,270,0.0,0.0,82,0.00,,,0.00,WSDL version 420,2013-03-09 10:13:00,
2013-03-09 05:18:00,51.3,46.0,30.06,West,270,0.0,0.0,82,0.00,,,0.00,WSDL version 420,2013-03-09 10:18:00,
2013-03-09 05:23:00,51.3,46.0,30.09,West,270,0.0,0.0,82,0.00,,,0.00,WSDL version 420,2013-03-09 10:23:00,
2013-03-09 05:28:00,51.1,45.9,30.09,West,270,0.0,0.0,82,0.00,,,0.00,WSDL version 420,2013-03-09 10:28:00,
2013-03-09 05:33:00,51.1,45.9,30.09,West,270,0.0,0.0,82,0.00,,,0.00,WSDL version 420,2013-03-09 10:33:00,
2013-03-09 05:38:00,51.1,45.9,30.09,West,270,0.0,0.0,82,0.00,,,0.00,WSDL version 420,2013-03-09 10:38:00,
2013-03-09 05:43:00,51.0,45.8,30.09,West,270,0.0,0.0,82,0.00,,,0.00,WSDL version 420,2013-03-09 10:43:00,
2013-03-09 05:48:00,51.1,45.9,30.09,West,270,0.0,0.0,82,0.00,,,0.00,WSDL version 420,2013-03-09 10:48:00,
2013-03-09 05:53:00,51.1,45.9,30.09,West,270,0.0,0.0,82,0.00,,,0.00,WSDL version 420,2013-03-09 10:53:00,
2013-03-09 05:58:00,51.1,46.0,30.09,West,270,0.0,0.0,83,0.00,,,0.00,WSDL version 420,2013-03-09 10:58:00,
2013-03-09 06:03:00,51.3,46.4,30.09,West,270,0.0,0.0,83,0.00,,,0.00,WSDL version 420,2013-03-09 11:03:00,
2013-03-09 06:08:00,51.4,46.5,30.12,West,270,0.0,0.0,83,0.00,,,0.00,WSDL version 420,2013-03-09 11:08:00,
2013-03-09 06:13:00,51.4,46.6,30.12,West,270,0.0,0.0,83,0.00,,,0.00,WSDL version 420,2013-03-09 11:13:00,
2013-03-09 06:18:00,51.4,46.6,30.12,West,270,0.0,0.0,83,0.00,,,0.00,WSDL version 420,2013-03-09 11:18:00,
2013-03-09 06:23:00,51.5,46.6,30.12,West,270,0.0,0.0,83,0.00,,,0.00,WSDL version 420,2013-03-09 11:23:00,
2013-03-09 06:28:00,51.6,46.7,30.12,West,270,0.0,0.0,83,0.00,,,0.00,WSDL version 420,2013-03-09 11:28:00,
2013-03-09 06:33:00,51.6,46.7,30.12,West,270,0.0,0.0,83,0.00,,,0.00,WSDL version 420,2013-03-09 11:33:00,
2013-03-09 06:38:00,51.6,46.7,30.09,North,360,0.0,0.0,83,0.00,,,0.00,WSDL version 420,2013-03-09 11:38:00,
2013-03-09 06:43:00,51.8,47.0,30.09,East,90,0.0,0.0,83,0.00,,,0.00,WSDL version 420,2013-03-09 11:43:00,
2013-03-09 06:48:00,52.0,47.1,30.09,North,350,0.0,0.0,83,0.00,,,0.00,WSDL version 420,2013-03-09 11:48:00,
2013-03-09 06:53:00,52.2,47.3,30.12,NNE,32,0.0,0.0,83,0.00,,,0.00,WSDL version 420,2013-03-09 11:53:00,
2013-03-09 06:58:00,52.3,47.4,30.12,West,270,0.0,0.0,83,0.00,,,0.00,WSDL version 420,2013-03-09 11:58:00,
2013-03-09 07:03:00,52.4,47.4,30.12,North,360,0.0,0.0,82,0.00,,,0.00,WSDL version 420,2013-03-09 12:03:00,
2013-03-09 07:08:00,52.5,47.3,30.12,North,360,0.0,0.0,82,0.00,,,0.00,WSDL version 420,2013-03-09 12:08:00,
2013-03-09 07:13:00,52.8,47.5,30.12,North,360,0.0,0.0,82,0.00,,,0.00,WSDL version 420,2013-03-09 12:13:00,
2013-03-09 07:18:00,53.0,47.7,30.12,NNW,344,0.0,0.0,82,0.00,,,0.00,WSDL version 420,2013-03-09 12:18:00,
2013-03-09 07:23:00,53.3,48.1,30.12,North,360,0.0,0.0,82,0.00,,,0.00,WSDL version 420,2013-03-09 12:23:00,
2013-03-09 07:28:00,53.5,48.0,30.12,North,360,0.0,0.0,81,0.00,,,0.00,WSDL version 420,2013-03-09 12:28:00,
2013-03-09 07:33:00,54.0,48.3,30.12,North,349,1.0,2.5,81,0.00,,,0.00,WSDL version 420,2013-03-09 12:33:00,
2013-03-09 07:38:00,54.3,48.7,30.12,North,360,0.6,2.5,81,0.00,,,0.00,WSDL version 420,2013-03-09 12:38:00,
2013-03-09 07:43:00,54.8,48.7,30.12,NNW,343,1.1,2.2,80,0.00,,,0.00,WSDL version 420,2013-03-09 12:43:00,
2013-03-09 07:48:00,55.2,49.1,30.12,NNW,345,0.0,2.2,80,0.00,,,0.00,WSDL version 420,2013-03-09 12:48:00,
2013-03-09 07:53:00,55.6,49.1,30.12,NNW,338,0.5,2.0,78,0.00,,,0.00,WSDL version 420,2013-03-09 12:53:00,
2013-03-09 07:58:00,56.0,49.3,30.12,NNE,23,0.0,2.2,78,0.00,,,0.00,WSDL version 420,2013-03-09 12:58:00,
2013-03-09 08:03:00,56.4,49.3,30.12,NNE,14,2.1,2.7,77,0.00,,,0.00,WSDL version 420,2013-03-09 13:03:00,
2013-03-09 08:08:00,56.8,49.6,30.12,NNW,343,0.5,2.7,76,0.00,,,0.00,WSDL version 420,2013-03-09 13:08:00,
2013-03-09 08:13:00,57.3,49.7,30.12,North,356,1.3,3.1,75,0.00,,,0.00,WSDL version 420,2013-03-09 13:13:00,
2013-03-09 08:18:00,57.7,49.9,30.12,NNW,341,1.8,3.1,75,0.00,,,0.00,WSDL version 420,2013-03-09 13:18:00,
2013-03-09 08:23:00,58.2,50.4,30.12,NNE,15,0.7,2.7,75,0.00,,,0.00,WSDL version 420,2013-03-09 13:23:00,
2013-03-09 08:28:00,58.8,50.7,30.12,North,11,0.4,2.5,74,0.00,,,0.00,WSDL version 420,2013-03-09 13:28:00,
2013-03-09 08:33:00,59.3,51.0,30.12,North,349,0.0,2.5,74,0.00,,,0.00,WSDL version 420,2013-03-09 13:33:00,
2013-03-09 08:38:00,59.9,51.4,30.12,NNE,16,1.0,2.0,73,0.00,,,0.00,WSDL version 420,2013-03-09 13:38:00,
2013-03-09 08:43:00,60.4,51.8,30.12,NNW,346,1.4,2.2,73,0.00,,,0.00,WSDL version 420,2013-03-09 13:43:00,
2013-03-09 08:48:00,61.0,51.9,30.12,NE,34,1.2,2.2,72,0.00,,,0.00,WSDL version 420,2013-03-09 13:48:00,
2013-03-09 08:53:00,61.5,52.1,30.12,NNW,338,1.2,2.7,71,0.00,,,0.00,WSDL version 420,2013-03-09 13:53:00,
2013-03-09 08:58:00,62.1,52.3,30.12,North,360,1.1,2.7,70,0.00,,,0.00,WSDL version 420,2013-03-09 13:58:00,
2013-03-09 09:03:00,62.7,52.8,30.12,NNE,18,0.0,2.2,70,0.00,,,0.00,WSDL version 420,2013-03-09 14:03:00,
2013-03-09 09:08:00,63.6,53.2,30.15,NE,36,0.0,2.2,69,0.00,,,0.00,WSDL version 420,2013-03-09 14:08:00,
2013-03-09 09:13:00,64.2,53.6,30.15,NE,36,2.3,2.7,68,0.00,,,0.00,WSDL version 420,2013-03-09 14:13:00,
2013-03-09 09:18:00,64.8,53.8,30.15,NE,35,1.6,2.9,67,0.00,,,0.00,WSDL version 420,2013-03-09 14:18:00,
2013-03-09 09:23:00,65.4,53.7,30.12,NNW,338,1.0,2.9,66,0.00,,,0.00,WSDL version 420,2013-03-09 14:23:00,
2013-03-09 09:28:00,66.1,53.9,30.12,North,10,1.4,2.5,64,0.00,,,0.00,WSDL version 420,2013-03-09 14:28:00,
2013-03-09 09:33:00,66.9,54.0,30.12,NNW,338,1.6,2.7,63,0.00,,,0.00,WSDL version 420,2013-03-09 14:33:00,
2013-03-09 09:38:00,67.3,54.1,30.15,North,11,2.1,2.7,62,0.00,,,0.00,WSDL version 420,2013-03-09 14:38:00,
2013-03-09 09:43:00,67.9,53.7,30.15,North,9,2.0,2.9,59,0.00,,,0.00,WSDL version 420,2013-03-09 14:43:00,
2013-03-09 09:48:00,68.5,52.3,30.15,NE,45,1.9,3.8,53,0.00,,,0.00,WSDL version 420,2013-03-09 14:48:00,
2013-03-09 09:53:00,68.8,49.1,30.15,ENE,68,3.8,6.5,51,0.00,,,0.00,WSDL version 420,2013-03-09 14:53:00,
2013-03-09 09:58:00,69.2,50.1,30.15,NE,55,3.1,6.5,50,0.00,,,0.00,WSDL version 420,2013-03-09 14:58:00,
2013-03-09 10:03:00,69.6,49.2,30.15,North,8,3.1,4.7,49,0.00,,,0.00,WSDL version 420,2013-03-09 15:03:00,
2013-03-09 10:08:00,70.1,49.2,30.15,North,357,2.2,6.0,48,0.00,,,0.00,WSDL version 420,2013-03-09 15:08:00,
2013-03-09 10:13:00,70.5,48.4,30.15,NE,55,4.3,6.5,45,0.00,,,0.00,WSDL version 420,2013-03-09 15:13:00,
2013-03-09 10:18:00,70.7,48.9,30.15,North,356,2.7,6.5,46,0.00,,,0.00,WSDL version 420,2013-03-09 15:18:00,
2013-03-09 10:23:00,71.1,48.5,30.15,ENE,76,3.5,5.8,45,0.00,,,0.00,WSDL version 420,2013-03-09 15:23:00,
2013-03-09 10:28:00,71.4,48.7,30.15,ENE,70,3.8,5.8,44,0.00,,,0.00,WSDL version 420,2013-03-09 15:28:00,
2013-03-09 10:33:00,71.6,48.1,30.15,ENE,60,3.5,6.0,44,0.00,,,0.00,WSDL version 420,2013-03-09 15:33:00,
2013-03-09 10:38:00,72.0,48.3,30.15,ENE,68,4.7,6.0,42,0.00,,,0.00,WSDL version 420,2013-03-09 15:38:00,
2013-03-09 10:43:00,72.3,48.8,30.15,NNW,346,2.5,6.0,44,0.00,,,0.00,WSDL version 420,2013-03-09 15:43:00,
2013-03-09 10:48:00,72.7,49.3,30.15,North,8,2.2,5.6,44,0.00,,,0.00,WSDL version 420,2013-03-09 15:48:00,
2013-03-09 10:53:00,73.4,49.8,30.15,East,79,2.7,4.7,43,0.00,,,0.00,WSDL version 420,2013-03-09 15:53:00,
2013-03-09 10:58:00,73.8,50.1,30.15,ESE,106,2.8,4.3,44,0.00,,,0.00,WSDL version 420,2013-03-09 15:58:00,
2013-03-09 11:03:00,74.0,50.1,30.15,NNE,28,2.9,6.0,42,0.00,,,0.00,WSDL version 420,2013-03-09 16:03:00,
2013-03-09 11:08:00,74.1,49.2,30.15,ENE,60,3.6,6.0,41,0.00,,,0.00,WSDL version 420,2013-03-09 16:08:00,
2013-03-09 11:13:00,74.3,49.8,30.15,SE,140,2.6,5.6,42,0.00,,,0.00,WSDL version 420,2013-03-09 16:13:00,
2013-03-09 11:18:00,74.8,50.2,30.15,NE,53,3.5,5.6,42,0.00,,,0.00,WSDL version 420,2013-03-09 16:18:00,
2013-03-09 11:23:00,74.5,49.6,30.15,NNE,17,2.1,4.3,41,0.00,,,0.00,WSDL version 420,2013-03-09 16:23:00,
2013-03-09 11:28:00,74.5,49.5,30.15,ENE,68,2.1,5.8,42,0.00,,,0.00,WSDL version 420,2013-03-09 16:28:00,
2013-03-09 11:33:00,74.7,48.4,30.15,ENE,68,3.3,6.5,40,0.00,,,0.00,WSDL version 420,2013-03-09 16:33:00,
2013-03-09 11:38:00,75.0,48.8,30.15,ENE,71,2.8,6.5,40,0.00,,,0.00,WSDL version 420,2013-03-09 16:38:00,
2013-03-09 11:43:00,75.6,50.2,30.15,North,3,1.5,4.3,41,0.00,,,0.00,WSDL version 420,2013-03-09 16:43:00,
2013-03-09 11:48:00,75.9,49.9,30.15,ENE,59,3.2,5.6,39,0.00,,,0.00,WSDL version 420,2013-03-09 16:48:00,
2013-03-09 11:53:00,76.1,49.7,30.15,East,83,3.8,5.8,40,0.00,,,0.00,WSDL version 420,2013-03-09 16:53:00,
2013-03-09 11:58:00,75.6,48.4,30.15,NE,55,4.4,6.0,38,0.00,,,0.00,WSDL version 420,2013-03-09 16:58:00,
2013-03-09 12:03:00,75.6,48.5,30.15,NNE,23,2.7,8.7,38,0.00,,,0.00,WSDL version 420,2013-03-09 17:03:00,
2013-03-09 12:08:00,75.7,48.6,30.12,NE,45,5.4,8.7,38,0.00,,,0.00,WSDL version 420,2013-03-09 17:08:00,
2013-03-09 12:13:00,75.6,49.1,30.12,NNE,14,1.8,7.8,40,0.00,,,0.00,WSDL version 420,2013-03-09 17:13:00,
2013-03-09 12:18:00,76.3,50.3,30.12,NE,45,1.9,5.4,38,0.00,,,0.00,WSDL version 420,2013-03-09 17:18:00,
2013-03-09 12:23:00,75.2,48.2,30.12,NNE,30,3.2,6.7,39,0.00,,,0.00,WSDL version 420,2013-03-09 17:23:00,
2013-03-09 12:28:00,74.8,48.9,30.12,NE,35,2.9,6.7,40,0.00,,,0.00,WSDL version 420,2013-03-09 17:28:00,
2013-03-09 12:33:00,75.3,49.8,30.12,NE,48,4.0,7.8,41,0.00,,,0.00,WSDL version 420,2013-03-09 17:33:00,
2013-03-09 12:38:00,75.8,50.4,30.12,North,3,2.3,7.8,41,0.00,,,0.00,WSDL version 420,2013-03-09 17:38:00,
2013-03-09 12:43:00,76.1,49.5,30.12,NE,41,3.2,8.1,40,0.00,,,0.00,WSDL version 420,2013-03-09 17:43:00,
2013-03-09 12:48:00,75.9,48.9,30.12,ENE,70,4.0,8.1,38,0.00,,,0.00,WSDL version 420,2013-03-09 17:48:00,
2013-03-09 12:53:00,75.4,48.8,30.09,NE,45,2.6,7.4,40,0.00,,,0.00,WSDL version 420,2013-03-09 17:53:00,
2013-03-09 12:58:00,75.8,49.1,30.09,NE,53,2.9,7.4,39,0.00,,,0.00,WSDL version 420,2013-03-09 17:58:00,
2013-03-09 13:03:00,75.1,48.7,30.09,North,11,2.2,4.3,40,0.00,,,0.00,WSDL version 420,2013-03-09 18:03:00,
2013-03-09 13:08:00,74.8,49.1,30.09,ENE,65,2.7,4.3,40,0.00,,,0.00,WSDL version 420,2013-03-09 18:08:00,
2013-03-09 13:13:00,74.5,48.6,30.09,ENE,71,3.4,7.8,40,0.00,,,0.00,WSDL version 420,2013-03-09 18:13:00,
2013-03-09 13:18:00,74.6,48.9,30.09,ENE,61,3.2,7.8,40,0.00,,,0.00,WSDL version 420,2013-03-09 18:18:00,
2013-03-09 13:23:00,75.1,49.2,30.12,NNE,32,3.3,6.0,40,0.00,,,0.00,WSDL version 420,2013-03-09 18:23:00,
2013-03-09 13:28:00,75.6,49.6,30.12,ENE,68,2.8,6.0,40,0.00,,,0.00,WSDL version 420,2013-03-09 18:28:00,
2013-03-09 13:33:00,76.2,50.4,30.12,NE,49,2.6,5.8,40,0.00,,,0.00,WSDL version 420,2013-03-09 18:33:00,
2013-03-09 13:38:00,75.0,48.2,30.12,ENE,68,3.4,5.6,39,0.00,,,0.00,WSDL version 420,2013-03-09 18:38:00,
2013-03-09 13:43:00,74.8,48.9,30.12,NNE,23,1.9,5.6,41,0.00,,,0.00,WSDL version 420,2013-03-09 18:43:00,
2013-03-09 13:48:00,75.5,49.4,30.12,NE,51,4.2,8.5,39,0.00,,,0.00,WSDL version 420,2013-03-09 18:48:00,
2013-03-09 13:53:00,75.2,48.7,30.12,North,6,2.6,8.5,40,0.00,,,0.00,WSDL version 420,2013-03-09 18:53:00,
2013-03-09 13:58:00,75.3,49.0,30.12,NNE,14,2.1,6.5,40,0.00,,,0.00,WSDL version 420,2013-03-09 18:58:00,
2013-03-09 14:03:00,74.8,47.7,30.12,East,79,3.8,8.5,38,0.00,,,0.00,WSDL version 420,2013-03-09 19:03:00,
2013-03-09 14:08:00,75.0,48.7,30.12,NNE,15,4.1,10.1,40,0.00,,,0.00,WSDL version 420,2013-03-09 19:08:00,
2013-03-09 14:13:00,75.8,50.1,30.12,NNE,14,2.8,10.1,41,0.00,,,0.00,WSDL version 420,2013-03-09 19:13:00,
2013-03-09 14:18:00,76.0,49.8,30.12,NE,45,2.2,4.3,39,0.00,,,0.00,WSDL version 420,2013-03-09 19:18:00,
2013-03-09 14:23:00,75.8,49.3,30.12,NE,53,3.0,7.6,39,0.00,,,0.00,WSDL version 420,2013-03-09 19:23:00,
2013-03-09 14:28:00,76.0,49.0,30.12,North,356,2.5,7.6,40,0.00,,,0.00,WSDL version 420,2013-03-09 19:28:00,
2013-03-09 14:33:00,76.3,49.4,30.12,North,10,2.7,5.8,38,0.00,,,0.00,WSDL version 420,2013-03-09 19:33:00,
2013-03-09 14:38:00,76.2,49.0,30.09,NE,34,2.6,5.8,39,0.00,,,0.00,WSDL version 420,2013-03-09 19:38:00,
2013-03-09 14:43:00,75.7,47.6,30.09,NE,41,3.5,5.6,37,0.00,,,0.00,WSDL version 420,2013-03-09 19:43:00,
2013-03-09 14:48:00,75.4,47.9,30.09,North,356,3.5,5.8,38,0.00,,,0.00,WSDL version 420,2013-03-09 19:48:00,
2013-03-09 14:53:00,75.4,48.1,30.09,NNE,17,3.1,8.1,37,0.00,,,0.00,WSDL version 420,2013-03-09 19:53:00,
2013-03-09 14:58:00,74.5,47.1,30.09,North,3,2.5,8.1,39,0.00,,,0.00,WSDL version 420,2013-03-09 19:58:00,
2013-03-09 15:03:00,74.8,47.5,30.09,NNE,18,3.8,6.5,39,0.00,,,0.00,WSDL version 420,2013-03-09 20:03:00,
2013-03-09 15:08:00,74.6,47.3,30.09,ENE,68,5.0,8.7,37,0.00,,,0.00,WSDL version 420,2013-03-09 20:08:00,
2013-03-09 15:13:00,73.8,45.9,30.09,ENE,58,4.1,8.7,37,0.00,,,0.00,WSDL version 420,2013-03-09 20:13:00,
2013-03-09 15:18:00,73.0,46.3,30.09,NE,48,2.7,7.4,39,0.00,,,0.00,WSDL version 420,2013-03-09 20:18:00,
2013-03-09 15:23:00,73.6,47.0,30.09,NNE,32,2.3,6.5,38,0.00,,,0.00,WSDL version 420,2013-03-09 20:23:00,
2013-03-09 15:28:00,73.5,45.9,30.09,ENE,64,5.0,9.8,37,0.00,,,0.00,WSDL version 420,2013-03-09 20:28:00,
2013-03-09 15:33:00,73.5,46.0,30.09,East,80,3.5,9.8,37,0.00,,,0.00,WSDL version 420,2013-03-09 20:33:00,
2013-03-09 15:38:00,73.3,45.8,30.09,North,8,4.2,8.5,38,0.00,,,0.00,WSDL version 420,2013-03-09 20:38:00,
2013-03-09 15:43:00,73.3,46.4,30.09,ENE,64,4.5,8.5,39,0.00,,,0.00,WSDL version 420,2013-03-09 20:43:00,
2013-03-09 15:48:00,73.5,47.4,30.09,North,11,2.6,8.9,40,0.00,,,0.00,WSDL version 420,2013-03-09 20:48:00,
2013-03-09 15:53:00,73.4,46.9,30.09,North,6,2.2,8.9,39,0.00,,,0.00,WSDL version 420,2013-03-09 20:53:00,
2013-03-09 15:58:00,73.4,47.5,30.09,North,3,2.5,5.8,39,0.00,,,0.00,WSDL version 420,2013-03-09 20:58:00,
2013-03-09 16:03:00,73.5,47.6,30.09,NE,49,2.4,5.4,40,0.00,,,0.00,WSDL version 420,2013-03-09 21:03:00,
2013-03-09 16:08:00,72.9,46.8,30.09,NE,48,3.0,5.8,39,0.00,,,0.00,WSDL version 420,2013-03-09 21:08:00,
2013-03-09 16:13:00,72.3,46.3,30.09,NE,45,4.3,6.5,39,0.00,,,0.00,WSDL version 420,2013-03-09 21:13:00,
2013-03-09 16:18:00,71.6,45.7,30.09,ENE,73,4.6,7.4,40,0.00,,,0.00,WSDL version 420,2013-03-09 21:18:00,
2013-03-09 16:23:00,71.1,45.6,30.09,ENE,59,3.8,7.4,40,0.00,,,0.00,WSDL version 420,2013-03-09 21:23:00,
2013-03-09 16:28:00,71.1,46.1,30.09,North,11,1.7,6.3,41,0.00,,,0.00,WSDL version 420,2013-03-09 21:28:00,
2013-03-09 16:33:00,71.5,46.8,30.09,East,101,5.2,6.9,41,0.00,,,0.00,WSDL version 420,2013-03-09 21:33:00,
2013-03-09 16:38:00,71.5,46.8,30.09,ENE,64,6.7,10.7,41,0.00,,,0.00,WSDL version 420,2013-03-09 21:38:00,
2013-03-09 16:43:00,70.7,46.1,30.09,ENE,64,4.0,10.7,41,0.00,,,0.00,WSDL version 420,2013-03-09 21:43:00,
2013-03-09 16:48:00,70.1,45.9,30.09,NE,45,2.6,6.0,42,0.00,,,0.00,WSDL version 420,2013-03-09 21:48:00,
2013-03-09 16:53:00,69.7,45.6,30.09,North,6,2.9,6.0,42,0.00,,,0.00,WSDL version 420,2013-03-09 21:53:00,
2013-03-09 16:58:00,69.4,45.6,30.09,NNE,27,1.7,5.4,42,0.00,,,0.00,WSDL version 420,2013-03-09 21:58:00,
2013-03-09 17:03:00,69.3,45.2,30.09,NE,45,4.4,8.1,42,0.00,,,0.00,WSDL version 420,2013-03-09 22:03:00,
2013-03-09 17:08:00,69.4,45.3,30.09,NE,50,1.9,8.1,42,0.00,,,0.00,WSDL version 420,2013-03-09 22:08:00,
2013-03-09 17:13:00,69.5,45.5,30.09,NNE,28,3.3,5.8,42,0.00,,,0.00,WSDL version 420,2013-03-09 22:13:00,
2013-03-09 17:18:00,69.6,45.7,30.09,NE,45,3.2,4.9,42,0.00,,,0.00,WSDL version 420,2013-03-09 22:18:00,
2013-03-09 17:23:00,69.7,45.6,30.12,NNE,15,1.4,4.9,42,0.00,,,0.00,WSDL version 420,2013-03-09 22:23:00,
2013-03-09 17:28:00,69.5,45.5,30.12,NNE,32,2.1,2.9,42,0.00,,,0.00,WSDL version 420,2013-03-09 22:28:00,
2013-03-09 17:33:00,69.1,45.7,30.12,North,6,1.6,2.9,43,0.00,,,0.00,WSDL version 420,2013-03-09 22:33:00,
2013-03-09 17:38:00,68.8,45.4,30.09,NNE,30,0.4,2.7,43,0.00,,,0.00,WSDL version 420,2013-03-09 22:38:00,
2013-03-09 17:43:00,68.6,45.3,30.09,NNE,23,1.3,1.6,43,0.00,,,0.00,WSDL version 420,2013-03-09 22:43:00,
2013-03-09 17:48:00,68.3,45.1,30.09,NE,34,0.7,1.3,44,0.00,,,0.00,WSDL version 420,2013-03-09 22:48:00,
2013-03-09 17:53:00,68.2,45.5,30.12,NE,53,2.5,2.5,44,0.00,,,0.00,WSDL version 420,2013-03-09 22:53:00,
2013-03-09 17:58:00,68.0,45.3,30.12,SW,218,1.9,2.9,44,0.00,,,0.00,WSDL version 420,2013-03-09 22:58:00,
2013-03-09 18:03:00,67.9,45.6,30.12,NNW,333,0.9,2.9,45,0.00,,,0.00,WSDL version 420,2013-03-09 23:03:00,
2013-03-09 18:08:00,67.7,45.6,30.12,ENE,68,0.0,2.0,45,0.00,,,0.00,WSDL version 420,2013-03-09 23:08:00,
2013-03-09 18:13:00,67.5,45.4,30.12,ESE,113,1.7,1.7,45,0.00,,,0.00,WSDL version 420,2013-03-09 23:13:00,
2013-03-09 18:18:00,67.3,45.7,30.12,North,8,0.0,1.3,46,0.00,,,0.00,WSDL version 420,2013-03-09 23:18:00,
2013-03-09 18:23:00,67.0,45.7,30.12,NE,45,0.0,1.3,47,0.00,,,0.00,WSDL version 420,2013-03-09 23:23:00,
2013-03-09 18:28:00,66.7,45.9,30.12,NE,45,0.0,0.0,47,0.00,,,0.00,WSDL version 420,2013-03-09 23:28:00,
2013-03-09 18:33:00,66.5,45.6,30.12,East,101,0.0,0.0,47,0.00,,,0.00,WSDL version 420,2013-03-09 23:33:00,
2013-03-09 18:38:00,66.3,45.5,30.12,ESE,113,0.0,0.0,47,0.00,,,0.00,WSDL version 420,2013-03-09 23:38:00,
2013-03-09 18:43:00,66.1,45.7,30.12,NE,45,0.0,0.0,48,0.00,,,0.00,WSDL version 420,2013-03-09 23:43:00,
2013-03-09 18:48:00,65.9,45.7,30.12,NE,45,0.0,0.0,48,0.00,,,0.00,WSDL version 420,2013-03-09 23:48:00,
2013-03-09 18:53:00,65.7,45.5,30.12,NE,45,0.0,0.0,48,0.00,,,0.00,WSDL version 420,2013-03-09 23:53:00,
2013-03-09 18:58:00,65.4,45.2,30.12,NE,45,0.0,0.0,48,0.00,,,0.00,WSDL version 420,2013-03-09 23:58:00,
2013-03-09 19:03:00,65.2,45.3,30.12,ENE,68,0.0,0.0,49,0.00,,,0.00,WSDL version 420,2013-03-10 00:03:00,
2013-03-09 19:08:00,64.9,45.3,30.12,ENE,68,0.0,0.0,49,0.00,,,0.00,WSDL version 420,2013-03-10 00:08:00,
2013-03-09 19:13:00,64.6,45.4,30.12,ENE,68,0.0,0.0,50,0.00,,,0.00,WSDL version 420,2013-03-10 00:13:00,
2013-03-09 19:18:00,64.3,45.4,30.12,ENE,68,0.0,0.0,51,0.00,,,0.00,WSDL version 420,2013-03-10 00:18:00,
2013-03-09 19:23:00,64.1,45.7,30.09,ENE,68,0.0,0.0,51,0.00,,,0.00,WSDL version 420,2013-03-10 00:23:00,
2013-03-09 19:28:00,64.0,45.5,30.09,ENE,68,0.0,0.0,51,0.00,,,0.00,WSDL version 420,2013-03-10 00:28:00,
2013-03-09 19:33:00,63.8,45.4,30.09,ENE,68,0.0,0.0,52,0.00,,,0.00,WSDL version 420,2013-03-10 00:33:00,
2013-03-09 19:38:00,63.5,45.6,30.12,ENE,68,0.0,0.0,52,0.00,,,0.00,WSDL version 420,2013-03-10 00:38:00,
2013-03-09 19:43:00,63.3,45.4,30.12,ENE,68,0.0,0.0,52,0.00,,,0.00,WSDL version 420,2013-03-10 00:43:00,
2013-03-09 19:48:00,63.1,45.8,30.12,ENE,68,0.0,0.0,53,0.00,,,0.00,WSDL version 420,2013-03-10 00:48:00,
2013-03-09 19:53:00,63.0,45.6,30.12,ENE,68,0.0,0.0,53,0.00,,,0.00,WSDL version 420,2013-03-10 00:53:00,
2013-03-09 19:58:00,62.7,45.4,30.12,ENE,68,0.0,0.0,53,0.00,,,0.00,WSDL version 420,2013-03-10 00:58:00,
2013-03-09 20:03:00,62.6,45.7,30.12,SSE,158,0.0,0.0,54,0.00,,,0.00,WSDL version 420,2013-03-10 01:03:00,
2013-03-09 20:08:00,62.3,46.0,30.12,SSE,158,0.0,0.0,55,0.00,,,0.00,WSDL version 420,2013-03-10 01:08:00,
2013-03-09 20:13:00,62.1,45.8,30.12,SSE,158,0.0,0.0,55,0.00,,,0.00,WSDL version 420,2013-03-10 01:13:00,
2013-03-09 20:18:00,61.8,45.7,30.12,SSE,158,0.0,0.0,56,0.00,,,0.00,WSDL version 420,2013-03-10 01:18:00,
2013-03-09 20:23:00,61.5,45.7,30.12,ENE,59,0.0,0.0,56,0.00,,,0.00,WSDL version 420,2013-03-10 01:23:00,
2013-03-09 20:28:00,61.3,45.7,30.12,North,360,0.0,0.0,57,0.00,,,0.00,WSDL version 420,2013-03-10 01:28:00,
2013-03-09 20:33:00,61.1,45.7,30.12,North,360,0.0,0.0,57,0.00,,,0.00,WSDL version 420,2013-03-10 01:33:00,
2013-03-09 20:38:00,61.0,46.1,30.12,North,360,0.0,0.0,58,0.00,,,0.00,WSDL version 420,2013-03-10 01:38:00,
2013-03-09 20:43:00,60.8,46.2,30.12,North,360,0.0,0.0,59,0.00,,,0.00,WSDL version 420,2013-03-10 01:43:00,
2013-03-09 20:48:00,60.6,46.2,30.12,North,360,0.0,0.0,59,0.00,,,0.00,WSDL version 420,2013-03-10 01:48:00,
2013-03-09 20:53:00,60.4,46.7,30.12,North,360,0.0,0.0,61,0.00,,,0.00,WSDL version 420,2013-03-10 01:53:00,
2013-03-09 20:58:00,60.3,47.0,30.12,North,360,0.0,0.0,62,0.00,,,0.00,WSDL version 420,2013-03-10 01:58:00,
2013-03-09 21:03:00,60.0,46.5,30.12,North,360,0.0,0.0,61,0.00,,,0.00,WSDL version 420,2013-03-10 02:03:00,
2013-03-09 21:08:00,59.8,46.8,30.12,WSW,248,0.0,0.0,62,0.00,,,0.00,WSDL version 420,2013-03-10 02:08:00,
2013-03-09 21:13:00,59.5,46.9,30.12,WSW,248,0.0,0.0,63,0.00,,,0.00,WSDL version 420,2013-03-10 02:13:00,
2013-03-09 21:18:00,59.3,46.7,30.12,WSW,248,0.0,0.0,63,0.00,,,0.00,WSDL version 420,2013-03-10 02:18:00,
2013-03-09 21:23:00,59.1,46.7,30.15,WSW,248,0.0,0.0,63,0.00,,,0.00,WSDL version 420,2013-03-10 02:23:00,
2013-03-09 21:28:00,58.9,46.6,30.15,North,360,0.0,0.0,64,0.00,,,0.00,WSDL version 420,2013-03-10 02:28:00,
2013-03-09 21:33:00,58.7,46.6,30.15,North,360,0.0,0.0,64,0.00,,,0.00,WSDL version 420,2013-03-10 02:33:00,
2013-03-09 21:38:00,58.6,46.8,30.15,North,360,0.0,0.0,64,0.00,,,0.00,WSDL version 420,2013-03-10 02:38:00,
2013-03-09 21:43:00,58.5,46.7,30.15,North,360,0.0,0.0,65,0.00,,,0.00,WSDL version 420,2013-03-10 02:43:00,
2013-03-09 21:48:00,58.5,46.8,30.15,North,360,0.0,0.0,65,0.00,,,0.00,WSDL version 420,2013-03-10 02:48:00,
2013-03-09 21:53:00,58.3,47.0,30.15,North,360,0.0,0.0,66,0.00,,,0.00,WSDL version 420,2013-03-10 02:53:00,
2013-03-09 21:58:00,58.1,46.9,30.15,North,360,0.0,0.0,66,0.00,,,0.00,WSDL version 420,2013-03-10 02:58:00,
2013-03-09 22:03:00,58.3,47.2,30.15,North,360,0.0,0.0,67,0.00,,,0.00,WSDL version 420,2013-03-10 03:03:00,
2013-03-09 22:08:00,58.2,47.3,30.15,North,360,0.0,0.0,67,0.00,,,0.00,WSDL version 420,2013-03-10 03:08:00,
2013-03-09 22:13:00,58.1,47.2,30.15,North,360,0.0,0.0,67,0.00,,,0.00,WSDL version 420,2013-03-10 03:13:00,
2013-03-09 22:18:00,58.1,47.2,30.15,North,360,0.0,0.0,67,0.00,,,0.00,WSDL version 420,2013-03-10 03:18:00,
2013-03-09 22:23:00,58.1,47.3,30.12,North,360,0.0,0.0,68,0.00,,,0.00,WSDL version 420,2013-03-10 03:23:00,
2013-03-09 22:28:00,58.1,47.6,30.12,North,360,0.0,0.0,68,0.00,,,0.00,WSDL version 420,2013-03-10 03:28:00,
2013-03-09 22:33:00,58.1,47.8,30.12,North,360,0.0,0.0,69,0.00,,,0.00,WSDL version 420,2013-03-10 03:33:00,
2013-03-09 22:38:00,58.1,48.0,30.12,SW,225,0.0,0.0,69,0.00,,,0.00,WSDL version 420,2013-03-10 03:38:00,
2013-03-09 22:43:00,57.9,48.2,30.12,SW,225,0.0,0.0,70,0.00,,,0.00,WSDL version 420,2013-03-10 03:43:00,
2013-03-09 22:48:00,57.8,48.1,30.12,NW,315,0.0,0.0,70,0.00,,,0.00,WSDL version 420,2013-03-10 03:48:00,
2013-03-09 22:53:00,57.7,48.0,30.12,NW,315,0.0,0.0,70,0.00,,,0.00,WSDL version 420,2013-03-10 03:53:00,
2013-03-09 22:58:00,57.6,47.9,30.12,NW,315,0.0,0.0,70,0.00,,,0.00,WSDL version 420,2013-03-10 03:58:00,
2013-03-09 23:03:00,57.7,48.0,30.12,NW,315,0.0,0.0,70,0.00,,,0.00,WSDL version 420,2013-03-10 04:03:00,
2013-03-09 23:08:00,57.8,48.1,30.12,NW,315,0.0,0.0,70,0.00,,,0.00,WSDL version 420,2013-03-10 04:08:00,
2013-03-09 23:13:00,57.9,48.2,30.12,NW,315,0.0,0.0,70,0.00,,,0.00,WSDL version 420,2013-03-10 04:13:00,
2013-03-09 23:18:00,58.0,48.7,30.12,SSW,212,0.0,0.0,71,0.00,,,0.00,WSDL version 420,2013-03-10 04:18:00,
2013-03-09 23:23:00,58.1,48.8,30.12,SSW,203,0.0,0.0,71,0.00,,,0.00,WSDL version 420,2013-03-10 04:23:00,
2013-03-09 23:28:00,58.0,48.6,30.12,SSW,203,0.0,0.0,71,0.00,,,0.00,WSDL version 420,2013-03-10 04:28:00,
2013-03-09 23:33:00,58.1,49.0,30.12,SSW,203,0.0,0.0,72,0.00,,,0.00,WSDL version 420,2013-03-10 04:33:00,
2013-03-09 23:38:00,58.1,48.8,30.12,SSW,203,0.0,0.0,71,0.00,,,0.00,WSDL version 420,2013-03-10 04:38:00,
2013-03-09 23:43:00,58.1,48.8,30.12,SSW,203,0.0,0.0,71,0.00,,,0.00,WSDL version 420,2013-03-10 04:43:00,
2013-03-09 23:48:00,58.3,49.3,30.12,SSW,203,0.0,0.0,72,0.00,,,0.00,WSDL version 420,2013-03-10 04:48:00,
2013-03-09 23:53:00,58.1,48.9,30.12,SSW,203,0.0,0.0,71,0.00,,,0.00,WSDL version 420,2013-03-10 04:53:00,
2013-03-09 23:58:00,58.1,48.8,30.12,SSW,203,0.0,0.0,71,0.00,,,0.00,WSDL version 420,2013-03-10 04:58:00,